Weather in Naverezhye

Russia / Pskov Oblast     57°23′10″N   29°29′28″E
temp.,
°C
wind,
m/s
gust,
m/s
humid.,
%
clouds,
%
prec.,
mm/h
press.,
hPa
HPBL,
m
29 june, wed
wed2900:00+16sw009079 0.6 102111
03:00+16e2392100 0.8 102159
06:00+17se269589 0.1 1020177
09:00+21se357410 0.1 1020466
12:00+25ese44585 0.0 1020928
15:00+26ese33524 0.0 10191380
18:00+26e33541 0.0 10181343
21:00+21e22790 0.0 101845
30 june, thu
thu3000:00+17e27790 0.0 1019131
03:00+16ese22700 0.0 101924
06:00+17e12780 0.0 102043
09:00+22ene23610 0.0 1020467
12:00+25ene33397 0.0 10201250
15:00+26ene23302 0.0 10201640
18:00+25ne23375 0.0 10201428
21:00+18ne23665 0.0 102054
1 july, fri
fri100:00+16e22645 0.0 102129
03:00+15ese22695 0.0 102222
06:00+15ese23690 0.0 102259
09:00+22ese23492 0.0 1022326
12:00+26ese343798 0.0 10221169
15:00+27ese2333100 0.0 10211702
18:00+27e224395 0.0 10211391
21:00+21e116327 0.0 102111
2 july, sat
sat200:00+18se126097 0.0 102112
03:00+17s226299 0.0 102242
06:00+18ssw238215 0.0 102159
09:00+24ssw1266100 0.0 1021423
12:00+28w2348100 0.0 10201773
15:00+29w224192 0.0 10202355
18:00+24wsw3564100 0.0 1019159
21:00+23wsw2565100 0.0 101989
3 july, sun
sun300:00+21wsw2560100 0.0 1019117
03:00+20wsw2462100 0.0 101987
06:00+18wsw237799 0.0 101962
09:00+24wsw225524 0.0 1018368
12:00+28wsw224360 0.0 10181692
15:00+28w323999 0.0 10172299
18:00+28w2344100 0.0 10172111
21:00+21nw278296 0.0 1018217